Track IRIDIUM 129 now! 10-day predictions IRIDIUM 129 is classified as:
1 42958U 17061D 25199.87419955 .00000128 00000-0 38786-4 0 9994 2 42958 86.4010 164.5643 0003175 91.2352 268.9207 14.34217838407024